Vertical_Velocity
-2 -1 -1 -1 -1 -2 -1 -0 -0 -1 -1 -0 0 -1 -1 -0 -0 -1 -1 -1 -0 -0 0 0 -1 -0 -1 0 1 -3 -19 -1 11 1 -0 0 1 0 -0 2 -1 -0 -1 0 1
0 -1 -1 -1 -1 -0 -1 -1 0 -0 -1 -1 -1 -1 -1 0 -1 -0 -1 -1 0 0 -0 -1 -1 -2 -3 -1 -4 62 19 -7 -2 18 -5 1 0 0 -1 1 -0 -1 -0 1 1
0 -0 -1 -2 -1 -1 -1 -0 -1 -1 -1 -1 -1 -1 -0 -0 -0 -2 -0 -2 -0 -0 1 -0 -1 -1 -0 -3 -4 4 -1 -1 -2 -1 -2 1 -0 0 -0 1 0 -2 -2 0 1
-1 -1 0 -1 -0 -0 -0 0 1 0 -0 -0 -0 -0 -1 -0 -1 -1 -0 -1 -1 0 0 -2 -1 -0 -1 -1 -2 -2 -3 9 -3 -1 -0 0 0 -0 0 1 0 -2 -1 -1 1
-1 -1 -0 -1 0 -0 -0 -0 0 2 1 1 1 0 -1 -0 -1 -0 -1 -1 -0 0 -0 -0 -1 -1 11 -2 -3 1 2 -2 -1 -2 -3 -1 1 1 0 2 -1 -1 -1 -2 -0
-2 -3 -1 -1 -1 -1 -0 -0 -0 -0 0 0 -0 -1 -1 -1 -2 -0 0 -1 -1 -0 -1 -1 -1 -1 -3 -2 19 1 -1 -1 -3 -2 -2 -3 -1 2 1 0 1 -0 -1 -0 -1
1 1 0 0 0 -0 0 0 -1 0 0 0 0 -0 -0 -1 -2 -2 -0 -1 -1 0 -1 1 -1 -1 -2 -2 4 2 -1 0 -0 -1 -2 -2 -6 1 2 -0 1 -1 -1 -2 1
0 0 0 -1 -1 1 0 -0 -1 -1 -0 0 0 -1 -1 0 -1 -0 -1 -0 -1 -1 1 -0 -0 -3 -1 -3 -1 -4 2 3 -5 2 0 -3 -4 -2 1 2 -1 1 0 -2 -1
0 1 1 1 -0 -1 -0 -0 -0 -0 -0 -0 0 -1 -1 -1 -0 -0 -0 -0 -1 -1 -2 1 0 -1 -1 0 10 0 12 -13 -21 1 1 -5 18 -1 -2 0 -0 -0 1 -0 -3
1 -1 -1 -0 -0 0 0 -1 -0 -0 -0 -1 -1 -1 -0 -2 -0 -1 -1 -0 -2 -3 -2 -1 -1 -1 -1 -2 15 -2 9 -1 0 11 2 0 -1 -1 -2 -2 -1 -1 -1 0 -0
-0 0 -0 -0 0 -0 -1 -1 -1 -1 -1 1 1 -1 -0 -2 -1 -0 -1 -0 -2 -3 -2 -2 -1 -1 2 -1 -0 -3 0 5 5 8 2 -4 1 -1 -0 -1 0 -1 -1 -1 -1
-0 -0 -1 -1 0 1 -0 -0 0 -1 -0 -0 1 -1 -1 -1 -2 -2 -1 -0 -1 -2 -2 -2 -0 1 0 1 -1 -2 0 -1 1 0 -1 4 4 -2 -1 1 -2 -1 -0 -1 -1
-1 -1 0 1 1 -1 -1 -0 -0 -1 -1 -1 -1 0 -0 -1 -0 -1 -1 -1 -3 -1 -1 -1 -2 -3 1 1 -0 -0 -3 4 -1 -3 4 1 -1 -8 -2 0 -1 -2 -2 -1 -1
-0 0 -0 -0 0 0 -0 -0 0 -0 0 -1 -0 0 -1 0 -0 -0 -1 -1 -1 -1 -1 -0 -5 -0 -1 1 1 -1 -3 -1 -0 -3 5 1 13 -7 -8 -3 -2 -1 -2 -1 -1
0 -0 -0 -0 -0 -0 -0 0 -0 0 -3 -0 0 -1 -0 -1 -1 -1 -1 -1 0 -2 -1 3 -1 0 -2 1 -1 2 -5 -0 -1 -2 -2 6 -7 11 -6 -4 -7 -0 1 0 -0
-1 -1 0 -0 -0 1 -1 -1 -1 0 -3 0 -1 1 -0 -1 -1 -1 -1 -2 -0 0 1 -2 1 -0 3 -1 -1 1 -1 -1 -1 -1 -1 6 -12 28 -8 36 -5 1 -1 1 -0
-1 -0 -1 0 1 0 -0 0 -2 2 5 -2 -0 0 -1 -1 -1 -1 -1 -1 -1 -2 0 -3 3 -4 -1 -0 -0 -1 1 -1 -4 -4 -10 8 7 38 4 -11 -2 -4 -1 2 -1
-0 -1 -1 -2 -1 -1 -1 -2 3 1 -1 4 -0 1 0 -0 -1 -1 -1 -1 -2 1 -2 -0 -2 -2 2 2 -1 -1 0 1 -4 -2 12 5 -5 4 -7 -4 -4 -3 -2 1 -1
2 1 -2 -1 -2 -1 -2 -1 -0 3 1 3 -0 -1 2 -2 -1 1 -0 -1 -0 -0 0 -1 2 -3 -0 -0 -1 2 -5 6 0 -12 -8 40 8 -10 -1 -6 -2 -4 -1 0 -2
-3 -1 1 -1 -2 -3 -2 5 -3 5 1 0 -0 1 0 1 0 -2 -1 2 -0 1 -0 -2 -1 -4 -1 -1 -1 -1 -2 -1 -2 -2 -2 -2 -3 40 -6 1 -5 -2 0 -3 1
-4 -2 16 -3 -1 -2 0 -1 -1 -6 2 1 2 1 1 1 -3 2 2 -1 3 -2 1 -0 5 -7 1 3 0 -1 -2 -2 -2 3 -4 -3 -1 32 3 -4 -1 -7 -2 -1 -2
1 -0 22 -4 -2 -1 1 1 -8 5 1 -4 2 4 -1 2 0 -5 1 4 -4 -0 2 4 2 0 -2 0 0 -3 -1 2 -3 -0 -3 3 48 3 -7 -11 5 -5 -5 -2 -0
-2 3 -3 -6 4 -2 -1 1 -1 5 -2 5 -2 2 1 -2 -2 1 0 3 -12 6 -3 8 3 3 2 1 -3 1 3 3 -1 2 -2 2 13 -22 5 -2 -1 -1 -1 -4 -4
-3 2 -8 5 0 -0 0 -1 -2 -1 3 0 3 1 2 -0 2 2 1 3 -8 8 -4 2 4 2 3 6 2 -8 -2 -1 1 -1 3 -5 16 -7 -3 -3 -0 -2 4 -0 -5
2 -3 4 -7 -1 -1 2 -0 -1 4 -4 3 0 3 1 3 1 -1 4 5 -14 5 -3 3 -1 0 2 2 -0 1 -4 1 -1 1 -4 5 2 4 -4 -4 -3 -2 1 0 -1
-3 6 -6 4 0 -2 3 9 0 3 2 1 -3 2 4 1 1 5 5 0 7 -3 2 3 1 -1 -2 3 0 -3 2 -1 3 -2 0 -2 -3 -2 -2 -14 3 2 -0 1 1
-4 -5 -6 8 -0 -4 6 2 1 -1 7 4 1 -2 7 -3 -13 -4 2 -3 1 -4 -5 2 5 0 -1 4 3 -17 8 1 2 1 -1 0 2 3 -1 -10 -5 4 -1 -0 0
Height
5892 5893 5895 5896 5898 5899 5900 5900 5901 5902 5903 5904 5904 5903 5903 5903 5904 5905 5907 5908 5908 5908 5909 5910 5910 5911 5911 5913 5916 5916 5917 5925 5918 5917 5911 5910 5910 5910 5909 5908 5907 5907 5906 5906 5905
5893 5894 5895 5896 5898 5899 5900 5901 5902 5903 5904 5904 5904 5904 5904 5905 5905 5906 5908 5909 5909 5910 5911 5911 5912 5912 5914 5915 5918 5914 5925 5925 5923 5920 5916 5913 5913 5912 5912 5910 5910 5910 5910 5908 5908
5893 5894 5895 5897 5898 5899 5901 5902 5903 5904 5904 5905 5905 5905 5905 5906 5906 5907 5908 5909 5911 5912 5913 5914 5914 5915 5916 5917 5920 5919 5927 5925 5921 5922 5917 5915 5915 5915 5915 5913 5913 5913 5913 5912 5911
5893 5895 5896 5897 5898 5899 5901 5902 5904 5904 5905 5905 5906 5906 5906 5907 5909 5907 5908 5909 5911 5913 5914 5915 5916 5917 5919 5919 5920 5922 5922 5926 5920 5920 5919 5919 5917 5917 5917 5917 5916 5916 5916 5916 5915
5894 5895 5895 5897 5898 5899 5901 5902 5903 5904 5905 5906 5906 5907 5907 5908 5908 5908 5909 5910 5911 5913 5914 5915 5917 5918 5921 5920 5921 5924 5924 5923 5921 5921 5921 5921 5920 5919 5919 5918 5919 5919 5918 5918 5918
5894 5895 5895 5896 5898 5899 5900 5901 5902 5903 5904 5905 5906 5907 5908 5910 5909 5909 5909 5910 5911 5912 5914 5915 5917 5918 5919 5921 5913 5921 5924 5925 5924 5923 5924 5924 5924 5922 5922 5921 5921 5922 5921 5921 5922
5895 5895 5896 5897 5898 5898 5899 5900 5901 5902 5903 5904 5905 5906 5908 5909 5910 5910 5910 5911 5912 5912 5914 5915 5917 5919 5920 5921 5920 5924 5925 5926 5925 5924 5926 5926 5926 5926 5925 5925 5924 5925 5924 5924 5925
5898 5898 5898 5899 5899 5899 5900 5901 5902 5902 5903 5903 5904 5905 5907 5908 5909 5910 5910 5911 5912 5913 5913 5915 5916 5918 5919 5921 5922 5925 5926 5926 5927 5926 5927 5929 5928 5928 5927 5926 5927 5927 5927 5927 5927
5900 5900 5900 5900 5900 5901 5901 5902 5902 5903 5903 5903 5904 5904 5906 5906 5908 5909 5910 5911 5912 5913 5914 5915 5916 5918 5920 5922 5925 5926 5927 5925 5926 5927 5927 5929 5926 5929 5928 5928 5928 5927 5928 5929 5930
5902 5901 5901 5902 5902 5902 5902 5903 5903 5904 5904 5904 5904 5905 5905 5906 5906 5908 5909 5910 5910 5912 5913 5915 5916 5917 5919 5925 5923 5921 5924 5926 5927 5927 5929 5929 5930 5929 5929 5929 5930 5929 5929 5930 5930
5903 5903 5903 5903 5903 5903 5903 5904 5906 5906 5904 5905 5905 5904 5904 5905 5905 5906 5908 5908 5909 5911 5913 5914 5916 5918 5922 5922 5922 5923 5926 5926 5927 5923 5929 5928 5929 5929 5929 5929 5930 5930 5930 5930 5930
5903 5903 5903 5903 5904 5904 5903 5904 5904 5905 5905 5904 5905 5905 5904 5904 5905 5905 5906 5908 5908 5909 5911 5915 5916 5917 5919 5920 5922 5923 5929 5928 5927 5927 5929 5928 5930 5928 5929 5929 5929 5930 5931 5931 5931
5902 5902 5902 5903 5903 5903 5904 5904 5904 5904 5905 5905 5904 5904 5904 5905 5904 5904 5905 5906 5907 5908 5909 5912 5914 5915 5917 5919 5920 5922 5926 5929 5928 5927 5930 5930 5931 5928 5927 5928 5928 5929 5931 5931 5932
5901 5901 5901 5901 5903 5902 5902 5902 5903 5903 5904 5905 5904 5904 5904 5904 5904 5903 5904 5905 5905 5907 5907 5909 5911 5913 5915 5917 5919 5921 5922 5923 5924 5926 5929 5929 5933 5930 5926 5925 5926 5927 5928 5929 5930
5899 5899 5899 5899 5900 5900 5900 5900 5900 5901 5903 5904 5902 5902 5902 5903 5903 5903 5903 5903 5903 5904 5906 5909 5907 5910 5912 5914 5915 5917 5918 5920 5922 5924 5927 5932 5931 5932 5928 5925 5923 5925 5926 5927 5926
5896 5896 5896 5897 5897 5897 5897 5897 5898 5900 5898 5900 5900 5900 5899 5900 5900 5901 5901 5902 5902 5902 5903 5904 5905 5906 5909 5909 5912 5913 5914 5917 5919 5922 5927 5931 5930 5935 5922 5920 5921 5923 5924 5925 5925
5891 5892 5892 5892 5893 5893 5893 5894 5895 5895 5896 5896 5896 5896 5896 5897 5897 5898 5898 5899 5900 5900 5901 5901 5903 5902 5904 5906 5907 5910 5911 5915 5919 5922 5925 5928 5929 5931 5920 5918 5919 5918 5920 5922 5921
5886 5886 5886 5888 5888 5888 5888 5889 5890 5889 5889 5891 5891 5891 5892 5892 5893 5894 5894 5895 5896 5897 5897 5898 5898 5900 5902 5903 5904 5905 5908 5913 5918 5923 5926 5920 5922 5923 5915 5914 5913 5915 5916 5918 5918
5879 5879 5880 5881 5881 5881 5882 5882 5883 5883 5884 5884 5884 5884 5886 5887 5888 5888 5889 5891 5891 5893 5895 5894 5895 5894 5896 5898 5900 5902 5902 5908 5912 5916 5918 5922 5916 5912 5913 5912 5911 5911 5911 5912 5913
5870 5871 5872 5872 5873 5873 5874 5877 5875 5876 5877 5877 5877 5879 5879 5880 5881 5881 5883 5885 5886 5887 5887 5889 5890 5889 5891 5892 5895 5896 5900 5900 5902 5906 5911 5916 5917 5919 5906 5908 5907 5907 5907 5908 5908
5862 5862 5864 5863 5863 5864 5866 5866 5864 5865 5868 5869 5870 5870 5872 5873 5873 5875 5876 5878 5879 5879 5881 5882 5885 5883 5885 5888 5889 5891 5892 5895 5899 5903 5905 5910 5914 5915 5905 5901 5903 5902 5903 5903 5903
5851 5850 5853 5850 5853 5853 5854 5854 5852 5856 5856 5858 5859 5861 5862 5864 5864 5865 5868 5870 5868 5872 5873 5875 5876 5876 5878 5881 5882 5884 5886 5888 5890 5895 5898 5904 5910 5903 5899 5894 5899 5897 5898 5900 5901
5836 5836 5835 5836 5838 5838 5838 5840 5840 5842 5843 5846 5846 5849 5850 5852 5854 5856 5858 5861 5856 5865 5864 5866 5867 5869 5871 5873 5875 5877 5879 5881 5883 5887 5891 5896 5901 5890 5894 5892 5891 5891 5893 5894 5895
5822 5821 5819 5822 5821 5822 5822 5822 5824 5825 5828 5829 5832 5834 5836 5838 5842 5845 5848 5850 5846 5855 5853 5855 5857 5859 5865 5868 5869 5866 5870 5873 5874 5877 5884 5887 5892 5884 5884 5884 5884 5884 5887 5888 5888
5808 5807 5807 5804 5805 5805 5807 5807 5807 5809 5809 5811 5813 5816 5820 5823 5826 5829 5833 5837 5834 5841 5842 5846 5846 5849 5852 5856 5857 5859 5861 5863 5865 5868 5871 5880 5882 5884 5878 5873 5874 5877 5880 5881 5882
5791 5792 5791 5791 5789 5787 5789 5791 5791 5792 5794 5794 5795 5798 5802 5805 5809 5814 5816 5819 5823 5824 5828 5832 5834 5837 5839 5843 5845 5848 5851 5852 5855 5858 5861 5864 5867 5872 5867 5864 5868 5872 5872 5874 5874
5775 5774 5773 5774 5772 5772 5772 5771 5772 5773 5776 5777 5778 5780 5783 5783 5785 5789 5794 5797 5805 5808 5810 5818 5820 5822 5826 5831 5833 5834 5840 5842 5844 5847 5850 5853 5857 5858 5857 5855 5860 5864 5864 5865 5866